Weather History for KEGE - May, 2013

Change the Weather History Date:

Friday, May 17, 2013

  Actual Average Record
Temperature  
Mean Temperature 58 °F -  
Max Temperature 75 °F 68 °F 82 °F (1954)
Min Temperature 41 °F 34 °F 18 °F (1955)
Degree Days  
Heating Degree Days 7    
Growing Degree Days 8 (Base 50)    
Moisture  
Dew Point 29 °F    
Average Humidity 46    
Maximum Humidity 81    
Minimum Humidity 11    
Precipitation  
Precipitation 0.00 in - - ()
Sea Level Pressure  
Sea Level Pressure 29.96 in    
Wind  
Wind Speed 5 mph (SSE)    
Max Wind Speed 25 mph    
Max Gust Speed 34 mph    
Visibility 10 miles    
Events      
Averages and records for this station are not official NWS values.
T = Trace of Precipitation, MM = Missing Value Source: NWS Daily Summary

Daily Weather History Graph

Daily Weather History Graph

Search for Another Location

Airport or City:

Trip Planner

Search our weather history database for the weather conditions in past years. The results will help you decide how hot, cold, wet, or windy it might be!

Date:

Astronomy

May. 17, 2013 Rise Set
Actual Time 5:51 AM MDT 8:17 PM MDT
Civil Twilight 5:20 AM MDT 8:48 PM MDT
Nautical Twilight 4:42 AM MDT 9:26 PM MDT
Astronomical Twilight 4:00 AM MDT 10:08 PM MDT
Moon 12:26 PM MDT (5/17) 1:11 AM MDT (5/17)
Length of Visible Light 15h 27m
Length of Day
14h 26m
Waxing Crescent, 46% of the Moon is Illuminated
May 17
Waxing Crescent
May 17
First Quarter
May 24
Full
May 31
Last Quarter
Jun 8
New

Hourly Weather History & Observations

Time (MDT) Temp. Windchill Dew Point Humidity Pressure Visibility Wind Dir Wind Speed Gust Speed Precip Events Conditions
12:15 AM 51.8 °F - 39.2 °F 62% 29.96 in 10.0 mi South 3.5 mph - N/A   Partly Cloudy
12:35 AM 51.8 °F - 39.2 °F 62% 29.96 in 10.0 mi Calm Calm - N/A   Clear
12:55 AM 50.0 °F - 37.4 °F 62% 29.96 in 10.0 mi Calm Calm - N/A   Clear
1:15 AM 48.2 °F - 37.4 °F 66% 29.96 in 10.0 mi Calm Calm - N/A   Clear
1:35 AM 48.2 °F - 37.4 °F 66% 29.96 in 10.0 mi Calm Calm - N/A   Clear
1:55 AM 46.4 °F - 37.4 °F 71% 29.96 in 10.0 mi Calm Calm - N/A   Clear
2:15 AM 46.4 °F - 37.4 °F 71% 29.96 in 10.0 mi Calm Calm - N/A   Clear
2:35 AM 46.4 °F - 37.4 °F 71% 29.96 in 10.0 mi Calm Calm - N/A   Clear
2:55 AM 44.6 °F - 37.4 °F 76% 29.97 in 10.0 mi Calm Calm - N/A   Clear
3:15 AM 44.6 °F 42.2 °F 37.4 °F 76% 29.97 in 10.0 mi SSE 4.6 mph - N/A   Clear
3:35 AM 44.6 °F - 37.4 °F 76% 29.97 in 10.0 mi Calm Calm - N/A   Clear
3:55 AM 44.6 °F - 37.4 °F 76% 29.97 in 10.0 mi Calm Calm - N/A   Clear
4:15 AM 42.8 °F - 37.4 °F 81% 29.98 in 10.0 mi Calm Calm - N/A   Partly Cloudy
4:35 AM 42.8 °F 41.1 °F 35.6 °F 76% 29.98 in 10.0 mi East 3.5 mph - N/A   Mostly Cloudy
4:55 AM 42.8 °F 38.6 °F 35.6 °F 76% 29.98 in 10.0 mi East 6.9 mph - N/A   Scattered Clouds
5:15 AM 41.0 °F 37.1 °F 35.6 °F 81% 29.99 in 10.0 mi East 5.8 mph - N/A   Clear
5:35 AM 41.0 °F 39.0 °F 35.6 °F 81% 30.00 in 10.0 mi East 3.5 mph - N/A   Clear
6:15 AM 41.0 °F - 35.6 °F 81% 30.02 in 10.0 mi Calm Calm - N/A   Clear
6:35 AM 41.0 °F - 35.6 °F 81% 30.03 in 10.0 mi Calm Calm - N/A   Clear
6:50 AM 42.8 °F - 37.4 °F 81% 30.03 in 10.0 mi Calm Calm - N/A   Scattered Clouds
8:55 AM 51.8 °F - 28.4 °F 41% 30.02 in 10.0 mi Calm Calm - N/A   Partly Cloudy
9:50 AM 60.8 °F - 35.6 °F 39% 30.00 in 10.0 mi Calm Calm - N/A   Partly Cloudy
10:50 AM 69.8 °F - 23.0 °F 17% 29.98 in 10.0 mi SW 17.3 mph 27.6 mph N/A   Clear
11:50 AM 71.6 °F - 17.6 °F 13% 29.97 in 10.0 mi SW 17.3 mph 26.5 mph N/A   Clear
12:50 PM 73.4 °F - 17.6 °F 12% 29.95 in 10.0 mi WSW 20.7 mph 29.9 mph N/A   Partly Cloudy
1:50 PM 75.2 °F - 15.8 °F 11% 29.94 in 10.0 mi SW 25.3 mph 31.1 mph N/A   Partly Cloudy
2:50 PM 75.2 °F - 15.8 °F 11% 29.92 in 10.0 mi SSW 21.9 mph 34.5 mph N/A   Scattered Clouds
3:50 PM 73.4 °F - 15.8 °F 11% 29.91 in 10.0 mi WSW 17.3 mph 26.5 mph N/A   Scattered Clouds
4:50 PM 73.4 °F - 19.4 °F 13% 29.90 in 10.0 mi SW 12.7 mph - N/A   Mostly Cloudy
5:53 PM 71.6 °F - 17.6 °F 13% 29.90 in 10.0 mi SW 11.5 mph 21.9 mph N/A   Scattered Clouds
6:50 PM 69.8 °F - 19.4 °F 15% 29.91 in 10.0 mi WSW 12.7 mph - N/A   Scattered Clouds
6:55 PM 69.8 °F - 17.6 °F 14% 29.91 in 10.0 mi WSW 13.8 mph - N/A   Clear
7:15 PM 68.0 °F - 19.4 °F 16% 29.91 in 10.0 mi WSW 12.7 mph 19.6 mph N/A   Clear
7:35 PM 66.2 °F - 19.4 °F 17% 29.92 in 10.0 mi WSW 11.5 mph - N/A   Clear
7:55 PM 66.2 °F - 17.6 °F 15% 29.93 in 10.0 mi SW 8.1 mph - N/A   Clear
8:15 PM 66.2 °F - 21.2 °F 18% 29.94 in 10.0 mi South 5.8 mph - N/A   Clear
8:35 PM 60.8 °F - 26.6 °F 27% 29.94 in 10.0 mi SSE 3.5 mph - N/A   Clear
8:55 PM 60.8 °F - 24.8 °F 25% 29.95 in 10.0 mi East 4.6 mph - N/A   Clear
9:15 PM 57.2 °F - 28.4 °F 33% 29.95 in 10.0 mi ENE 8.1 mph - N/A   Clear
9:35 PM 57.2 °F - 26.6 °F 31% 29.96 in 10.0 mi ENE 9.2 mph - N/A   Clear
9:55 PM 55.4 °F - 28.4 °F 36% 29.97 in 10.0 mi East 6.9 mph - N/A   Clear
10:35 PM 53.6 °F - 28.4 °F 38% 29.97 in 10.0 mi East 5.8 mph - N/A   Clear
10:55 PM 53.6 °F - 28.4 °F 38% 29.97 in 10.0 mi ESE 5.8 mph - N/A   Clear
11:15 PM 53.6 °F - 28.4 °F 38% 29.97 in 10.0 mi SE 3.5 mph - N/A   Clear
11:35 PM 51.8 °F - 28.4 °F 41% 29.97 in 10.0 mi ESE 4.6 mph - N/A   Clear
11:55 PM 51.8 °F - 28.4 °F 41% 29.97 in 10.0 mi ESE 4.6 mph - N/A   Clear